Location: *
(49.0044°N, 9.5056°E)
Time: 08:26:13
(UTC+00:00)

Spot 2 Rocket - Pass Details

Date: 22 September 2019
Orbit: 757 x 772 km, 98.6° (Epoch: 14 October)

Event Time Altitude Azimuth Distance (km) Brightness Sun altitude
Exits shadow 19:34:38 48° 88° (E) 987 3.7 -21.9°
Maximum altitude 19:35:07 50° 68° (ENE) 965 3.7 -22.0°
Drops below altitude 10° 19:39:59 10° 355° (N) 2,299 6.4 -22.7°
Sets 19:42:21 0° 350° (N) 3,229 7.3 -23.0°
